SCP
0 0 0 0 0 0 0 0 0 0 0 0 0 1 1 1 1 1 1 1 2 2 2 2 3 4 4 4 4 4 5 5 3 2 2 2 2 2 2 2 2 2 1 1 1 1 1 1 1
0 0 0 0 0 0 0 0 0 0 1 1 1 1 1 1 1 1 1 1 2 2 3 3 3 3 3 3 4 4 5 5 4 3 2 2 2 2 2 2 2 2 2 1 1 1 1 1 1
0 0 0 0 0 0 0 0 0 1 1 1 1 1 1 1 1 1 2 2 2 2 3 3 3 4 3 3 3 4 5 5 5 4 3 3 2 2 2 2 2 2 2 2 2 1 1 1 1
0 0 0 0 0 0 0 0 0 1 1 1 1 1 1 1 1 1 2 2 3 3 3 4 4 4 4 3 3 3 4 5 5 4 4 3 3 3 3 2 2 2 2 2 2 2 1 1 1
0 0 0 0 0 0 0 0 0 1 1 1 1 1 1 1 1 1 2 3 4 4 4 4 5 5 4 3 3 3 4 4 5 5 4 4 4 4 4 3 2 2 2 2 2 2 1 1 1
0 0 0 0 0 0 0 0 0 1 1 1 1 1 1 1 1 1 2 3 5 5 5 5 5 4 4 3 3 3 4 4 4 4 5 5 5 5 4 4 3 2 2 2 2 2 2 1 1
0 0 0 0 0 0 0 0 1 1 1 1 1 1 1 1 2 2 3 4 5 5 5 4 3 3 3 3 2 2 3 3 4 4 4 4 5 5 4 4 3 2 2 2 2 1 2 2 2
0 0 0 0 0 0 0 0 1 1 1 1 1 1 1 2 3 3 4 4 4 4 4 3 3 3 3 3 3 2 2 2 3 3 3 4 4 4 4 3 3 2 2 2 1 1 1 1 1
0 0 0 0 0 0 0 0 1 1 1 1 1 1 1 2 4 4 4 4 3 3 3 3 3 3 2 3 3 3 2 2 3 3 3 3 3 3 3 3 2 2 2 2 1 1 1 1 1
0 0 0 0 0 0 0 0 1 1 1 1 1 1 2 3 4 4 4 3 3 2 2 3 3 3 3 3 3 2 3 3 4 4 4 4 3 3 3 2 2 2 1 1 1 1 1 1 1
0 0 0 0 0 1 0 0 1 1 1 1 1 1 2 3 4 3 3 3 3 3 3 3 3 3 3 3 3 3 3 4 4 3 3 4 4 3 3 3 2 1 1 1 1 1 1 1 1
0 0 0 0 0 1 1 1 1 1 1 1 1 2 2 3 3 3 2 2 3 3 3 4 4 3 3 3 3 3 4 4 3 2 2 2 3 3 3 3 2 2 2 1 1 1 1 1 1
0 0 0 0 0 0 0 1 1 1 1 1 1 2 2 2 2 2 2 2 3 3 4 4 4 3 3 4 4 5 4 3 3 2 2 2 2 2 2 2 2 2 2 2 2 1 1 1 1
0 0 0 0 0 0 0 1 1 1 1 1 1 1 2 2 2 2 2 2 3 4 4 4 4 3 3 4 5 5 4 3 3 3 2 2 2 2 2 2 2 2 2 2 2 1 1 1 1
0 0 1 1 1 0 0 0 1 1 1 1 1 1 1 1 2 2 2 3 3 4 4 4 4 3 3 4 5 4 4 3 3 3 3 3 3 2 2 2 2 2 2 2 1 1 1 1 1
0 1 1 1 1 0 0 0 0 1 1 1 1 1 1 1 2 3 3 4 4 4 4 4 4 3 3 3 3 3 3 3 3 4 4 4 4 3 2 2 2 1 1 1 1 1 1 1 1
0 0 1 1 1 0 0 0 0 1 1 1 1 1 1 1 1 3 4 4 4 4 4 5 5 4 3 2 2 2 2 3 3 4 4 4 5 4 3 2 2 1 1 1 1 1 1 1 1
0 0 0 1 1 0 0 0 0 1 1 2 1 1 1 1 1 2 3 4 4 4 4 5 5 4 2 1 2 2 1 2 2 3 3 4 6 6 5 3 2 1 1 1 1 1 0 0 0
0 0 1 1 0 0 0 0 0 1 1 1 1 1 1 1 1 2 2 3 3 4 4 5 4 3 2 2 1 1 1 1 1 1 2 3 5 6 5 4 2 1 1 0 0 0 0 0 0
0 1 1 1 0 0 0 0 0 0 1 1 1 1 1 1 2 3 3 2 2 3 4 4 4 3 2 2 2 2 1 1 1 1 1 2 3 4 4 3 2 1 1 0 0 0 0 0 0
0 1 1 1 1 0 0 0 0 0 0 1 1 1 1 2 2 3 3 3 2 3 4 4 3 3 3 3 3 3 2 2 1 1 1 1 1 2 2 2 2 1 1 1 0 0 0 0 0
0 1 1 1 1 1 0 0 0 0 0 1 1 1 1 1 2 3 4 3 2 2 3 3 2 2 3 3 4 4 3 2 2 2 2 1 1 1 2 2 1 1 1 1 1 1 1 1 1
0 0 1 1 1 1 0 0 0 0 0 1 1 1 1 1 1 2 3 3 3 3 3 3 2 2 2 3 4 4 3 3 3 3 2 2 2 2 2 2 1 1 1 1 1 1 1 1 1
0 1 1 1 0 0 0 0 0 0 1 1 1 1 1 1 1 2 3 3 3 3 3 3 2 2 2 2 3 3 3 3 3 3 3 3 2 2 2 2 2 2 2 1 1 1 1 1 1
1 1 1 1 0 0 0 0 0 1 1 1 1 1 1 1 1 1 2 4 4 4 3 2 2 2 2 2 2 3 3 4 4 4 4 3 3 3 2 2 2 2 2 2 2 2 2 2 1
1 1 1 0 0 0 0 0 0 1 1 1 1 1 1 1 1 2 3 4 4 3 2 2 1 1 1 2 2 3 4 5 5 5 5 5 4 4 3 3 3 3 3 3 3 3 2 2 2
1 0 0 0 0 0 0 0 0 1 1 1 1 1 1 1 2 2 3 3 3 2 1 1 1 1 1 1 2 2 3 5 6 6 6 6 5 4 4 4 4 4 4 4 4 4 3 3 3
0 0 0 0 0 0 0 0 0 1 1 1 1 1 2 3 3 3 3 2 2 1 1 0 1 1 1 1 1 2 2 3 5 6 6 6 5 5 4 4 4 4 4 5 4 4 4 3 3
0 0 0 0 0 0 0 0 0 1 1 1 2 2 2 4 4 4 3 2 1 1 0 0 1 1 1 0 0 1 1 2 3 3 4 4 5 4 4 3 3 3 4 4 4 4 3 3 3
0 0 0 0 0 0 0 0 1 1 1 1 2 2 3 4 4 3 3 2 1 1 1 1 1 1 1 0 0 0 0 1 1 1 2 3 3 3 3 3 3 3 4 4 4 3 3 2 3
Wind_Speed
4 3 2 2 5 5 1 4 3 2 1 0 1 2 4 3 3 2 0 6 9 9 7 10 12 12 12 11 11 11 12 12 13 12 12 12 11 11 10 10 10 10 10 10 9 8 8 8 8
3 3 2 4 5 2 4 4 3 3 2 1 1 2 3 1 2 3 3 6 9 9 7 8 12 12 12 12 11 11 11 12 12 12 12 12 11 10 10 9 9 9 9 9 8 8 7 7 7
3 2 4 4 3 3 4 3 3 0 1 1 1 2 2 1 1 3 4 9 9 7 6 8 13 12 12 11 11 11 11 11 12 12 12 11 10 9 9 9 9 8 8 8 8 7 6 6 7
3 3 4 4 1 4 5 4 2 1 1 1 2 2 1 1 2 4 8 10 9 7 5 7 12 12 11 11 12 11 11 11 11 12 11 11 10 9 8 8 8 8 7 7 7 7 6 7 7
3 4 4 2 4 5 4 4 2 2 1 1 2 2 1 3 4 8 10 9 9 7 5 6 12 11 11 11 11 11 11 10 10 10 10 10 9 8 8 8 8 7 7 7 7 7 6 7 6
4 4 4 2 4 4 3 2 1 1 1 1 3 2 0 1 5 7 8 7 7 7 5 5 11 12 11 11 11 10 10 9 9 9 10 9 8 8 7 7 7 7 7 7 6 6 6 6 6
4 4 3 3 3 4 3 1 3 2 1 2 4 4 1 1 3 6 6 6 5 6 5 4 5 7 10 10 10 10 9 9 8 8 9 9 8 8 7 7 7 7 6 6 6 6 6 6 6
4 4 1 2 3 5 2 1 1 3 2 1 4 5 4 4 6 7 6 5 5 4 4 4 4 4 5 6 8 9 9 9 9 8 8 8 8 7 7 6 7 7 6 6 6 6 6 5 5
4 4 2 4 4 5 1 1 2 0 2 1 1 3 4 11 10 9 7 5 4 4 3 4 4 4 4 4 6 7 8 8 7 6 7 6 3 3 3 5 6 6 6 6 6 5 5 5 4
4 3 7 6 4 3 3 1 2 0 1 1 1 3 8 12 11 10 9 8 7 7 5 4 4 4 4 4 3 2 3 3 3 2 3 3 2 2 2 4 6 6 6 6 6 5 5 3 2
5 6 6 5 5 3 3 3 3 4 4 7 7 9 11 11 10 10 10 9 9 7 6 5 5 4 4 2 3 2 2 2 2 2 3 3 2 2 2 1 2 2 4 3 3 4 3 2 2
4 6 5 4 3 3 4 3 2 6 8 6 7 11 13 13 12 12 11 9 7 6 6 5 5 4 4 3 3 3 2 2 2 2 3 2 2 2 2 1 2 2 2 2 2 2 2 2 2
4 5 4 5 5 4 3 4 4 6 5 3 6 10 13 13 11 9 8 8 7 7 6 6 5 5 4 4 3 4 3 3 2 2 2 3 2 2 2 1 1 2 2 2 2 2 2 2 2
4 3 4 5 5 3 4 5 3 7 3 4 7 9 10 11 11 9 8 8 8 8 7 6 5 5 5 5 4 3 3 3 3 2 3 3 2 2 3 2 2 2 2 2 2 2 2 1 1
1 3 6 3 3 3 2 5 6 6 4 5 6 8 9 9 9 10 11 10 9 8 7 7 6 5 6 5 5 4 3 3 3 2 3 3 3 2 2 2 2 2 2 2 2 2 2 1 1
1 2 3 5 2 2 3 7 7 4 6 6 6 6 7 7 8 8 8 7 7 6 7 6 6 6 5 5 4 3 3 3 2 2 2 3 3 3 2 2 1 2 2 2 2 2 2 1 1
2 1 4 5 2 1 3 7 5 3 5 6 6 5 6 6 7 7 7 8 7 8 7 7 6 6 5 5 3 3 3 2 2 2 2 2 3 3 3 2 2 2 2 2 2 2 2 1 1
5 3 4 5 3 1 4 8 7 4 6 6 6 6 6 7 8 7 7 7 7 7 6 6 6 6 5 4 3 2 2 1 1 1 2 2 2 3 3 2 2 3 2 2 2 2 1 1 1
4 4 7 9 5 3 6 8 8 5 5 6 6 6 7 7 5 5 6 6 7 7 7 7 7 6 5 4 3 3 2 1 1 1 2 2 2 3 3 2 2 3 3 3 3 2 2 1 1
5 5 7 8 3 3 4 7 6 4 6 7 8 8 7 5 4 5 6 6 6 7 7 7 7 7 7 4 4 3 2 2 1 1 1 2 2 3 3 3 2 3 2 3 3 3 2 1 1
6 7 7 6 4 2 1 5 4 3 2 3 4 5 6 8 8 8 7 7 7 8 8 8 7 7 7 6 4 3 2 2 1 0 1 1 2 3 3 3 3 3 3 3 3 4 4 2 1
7 8 7 4 1 3 0 3 7 3 2 2 3 3 5 5 6 7 7 7 7 7 7 6 6 6 6 6 5 6 4 3 3 2 2 1 1 2 2 3 3 3 3 3 3 3 3 3 2
8 3 3 2 3 1 1 2 7 2 3 4 4 4 4 4 6 7 8 8 7 6 7 6 6 5 5 6 6 6 4 3 2 1 2 2 1 1 2 2 3 3 3 3 3 3 3 3 3
4 4 4 4 4 2 4 4 6 4 5 4 3 3 2 3 4 5 5 5 5 5 6 5 6 5 4 5 5 6 6 5 4 3 2 2 1 1 2 2 3 3 3 3 4 3 4 3 4
4 5 3 4 2 6 3 3 8 5 4 4 4 3 2 3 4 5 6 6 6 6 6 6 6 5 5 5 5 6 6 6 6 4 4 3 2 2 3 2 2 3 3 3 3 3 4 4 4
4 8 7 5 5 4 2 5 6 2 2 2 2 2 2 3 4 5 6 7 7 7 7 6 6 5 5 5 6 5 5 4 4 4 4 4 3 3 3 3 3 3 3 3 3 2 3 3 4
5 4 5 6 2 1 4 4 5 2 2 1 1 2 2 3 4 4 5 5 6 6 6 7 7 5 5 5 5 5 6 5 4 4 3 3 3 3 2 3 3 3 3 3 3 3 3 3 3
5 7 5 5 4 3 4 3 4 4 4 2 0 1 2 3 3 3 4 4 4 5 5 5 6 6 5 5 5 4 5 5 5 4 4 3 3 2 2 2 3 3 3 3 3 3 3 3 3
3 4 4 4 4 5 3 6 4 5 5 4 3 2 3 4 4 3 2 3 3 3 3 4 5 5 4 5 4 4 4 4 4 4 4 3 3 3 3 3 3 3 3 3 3 3 3 4 3
4 6 7 5 4 4 3 7 3 2 3 2 2 2 3 3 3 3 2 2 3 3 3 3 4 4 5 5 4 4 4 4 4 4 4 3 3 3 3 3 3 3 3 3 4 4 4 4 4
Wind_Direction
147 119 104 77 56 49 288 259 241 278 286 283 127 130 135 144 168 203 125 134 133 138 148 154 152 148 144 141 138 134 133 133 134 133 132 132 132 132 131 128 127 126 126 125 123 124 125 129 138
133 132 72 62 80 52 280 254 240 238 187 136 80 78 89 85 77 113 126 141 136 139 144 151 153 149 146 143 141 138 137 137 137 137 137 138 138 136 133 130 127 127 125 126 128 129 127 128 134
146 124 86 74 103 185 245 250 235 271 178 153 88 62 99 126 124 156 160 142 132 136 142 157 153 150 147 146 145 143 141 140 140 139 139 139 138 136 134 131 129 128 126 126 129 128 124 129 134
115 57 57 71 247 234 234 257 244 254 316 80 111 74 67 37 169 155 139 140 136 138 144 159 151 149 148 149 149 148 145 144 143 142 142 141 139 138 135 133 133 131 131 130 127 123 116 121 123
68 79 60 16 270 262 252 253 232 229 245 111 120 122 19 356 96 126 138 144 143 142 147 159 152 150 149 151 151 151 148 147 146 145 144 142 141 138 135 134 133 131 129 128 126 120 118 117 117
62 70 82 276 279 280 268 240 177 222 178 135 122 126 301 47 109 132 136 137 140 143 148 155 155 154 153 154 154 152 152 151 150 149 147 145 144 143 139 139 136 132 127 128 126 120 121 122 118
109 104 165 225 272 287 270 225 165 182 195 194 145 132 188 131 128 127 124 122 128 138 141 145 151 153 152 152 155 154 154 153 151 151 150 149 149 148 148 147 143 137 134 131 128 124 121 117 115
129 110 163 236 246 263 265 348 207 169 210 152 135 154 197 182 137 120 110 112 122 132 143 145 141 139 140 149 155 157 156 155 152 152 150 148 151 152 154 151 150 147 144 139 135 130 123 116 113
101 86 219 226 219 253 263 6 318 122 133 129 161 180 171 138 134 128 120 121 138 154 158 157 154 147 144 153 161 157 158 157 151 151 152 145 134 136 150 154 150 147 142 139 137 134 129 121 114
110 163 227 220 207 238 274 251 236 118 176 181 121 99 125 140 149 153 157 163 171 180 179 171 167 160 153 159 146 140 146 142 135 136 138 124 121 133 133 145 143 136 130 128 126 121 115 102 88
166 201 230 241 225 234 254 256 211 172 226 216 191 164 152 156 162 169 173 177 183 181 180 178 179 172 164 156 143 135 128 124 114 122 130 121 111 110 93 89 114 109 109 93 95 89 83 85 87
192 238 230 244 225 221 232 235 226 213 228 214 183 162 162 168 176 181 181 182 178 176 183 177 180 174 175 162 152 145 136 131 123 120 117 124 123 112 107 99 92 90 95 100 94 99 97 93 90
219 254 255 249 263 241 236 235 231 248 241 172 155 159 171 177 184 188 183 175 173 179 183 180 178 180 176 160 155 145 138 136 130 122 115 125 136 134 120 107 102 104 104 109 113 112 115 111 99
233 257 287 284 273 256 226 253 219 250 202 156 163 176 181 185 184 180 179 179 183 184 185 179 176 178 164 158 152 146 142 136 131 135 137 133 135 140 133 125 121 124 127 123 124 133 130 122 117
282 322 320 286 252 245 188 282 236 228 169 174 184 187 184 191 186 188 188 186 187 184 181 179 175 167 160 157 152 148 145 140 146 149 144 140 140 147 142 142 144 147 135 123 113 106 103 116 118
33 27 307 285 252 243 166 257 261 205 170 193 197 187 186 194 194 196 188 183 179 172 174 178 172 161 157 152 148 146 144 147 152 148 147 155 152 152 141 145 160 145 130 126 128 123 112 108 115
17 265 263 288 250 198 196 252 261 210 179 198 203 194 189 192 196 195 188 182 175 173 173 170 161 159 156 145 134 130 135 148 148 144 151 167 163 156 150 160 165 147 133 131 139 120 134 132 127
233 232 257 264 256 231 252 259 267 225 200 203 203 201 195 199 207 193 185 179 171 165 166 165 155 154 145 131 118 112 115 135 133 147 164 164 165 164 157 161 161 153 146 147 142 142 128 130 138
206 225 261 266 255 232 250 262 267 235 205 205 207 205 206 214 203 180 177 169 160 156 160 164 159 156 146 148 152 153 165 172 164 177 179 175 167 162 160 163 160 163 169 176 163 144 132 118 118
222 251 268 284 283 214 263 277 272 232 209 208 205 205 205 202 186 180 176 168 167 166 167 165 168 166 161 165 160 152 152 170 177 168 166 182 176 168 168 165 168 171 165 165 165 156 141 146 129
228 214 236 256 315 336 284 306 288 275 239 223 212 210 202 196 195 190 180 178 173 175 177 175 173 169 165 157 139 126 103 83 102 171 204 210 188 169 166 172 169 177 180 185 184 174 167 174 175
244 226 217 233 254 289 146 282 288 281 286 243 238 231 215 207 197 190 181 180 181 181 171 168 165 165 162 158 157 157 163 176 197 197 201 213 188 177 172 171 175 184 190 192 196 185 178 172 187
221 224 194 200 177 266 282 203 278 315 265 263 253 242 224 204 195 187 184 183 177 169 166 168 158 158 158 161 168 167 169 176 170 165 178 198 207 199 189 181 182 190 197 200 198 189 189 189 190
187 77 49 55 87 243 232 186 269 245 235 256 257 247 221 188 177 177 168 157 157 158 159 158 153 154 154 162 170 172 174 171 162 173 187 207 225 232 222 194 193 198 200 202 203 200 196 199 197
120 102 33 359 7 249 231 192 247 247 237 232 236 235 200 171 164 158 157 158 160 164 162 161 157 160 165 170 177 182 180 177 185 187 195 198 204 224 233 213 207 207 209 201 191 197 204 200 198
174 147 162 194 218 265 269 226 249 259 251 256 226 196 155 150 156 163 169 168 168 169 164 163 162 168 171 176 182 183 181 181 193 192 191 196 207 220 219 213 214 215 208 199 188 193 206 199 205
150 177 169 143 176 249 271 281 304 332 340 358 92 126 148 154 156 162 165 168 169 169 169 170 168 170 174 179 182 181 178 186 193 191 188 197 211 215 209 205 210 211 205 196 185 196 204 197 207
150 143 105 128 162 237 275 265 262 288 280 282 259 179 167 142 138 153 169 173 168 165 160 161 171 176 179 183 189 185 181 186 189 186 194 203 212 208 202 207 207 208 203 194 188 198 203 196 208
130 123 125 135 165 170 233 264 230 232 239 234 226 193 167 160 159 161 165 165 152 143 146 161 170 170 178 187 188 178 176 176 176 188 203 207 209 205 207 208 205 203 202 198 195 206 199 205 219
167 164 147 156 213 183 181 258 284 253 247 218 206 165 144 152 152 139 129 127 137 152 156 161 171 178 186 185 177 182 177 172 181 197 207 204 209 215 214 208 205 206 202 196 199 215 212 211 220